Current Version              Previous Version:    01  02  03  04  05  06  07  08  09  10  11  12  13  14  15  16  17  18  19  20  21  22  23  24  25  26  27  28  29  30  
   31  32  33  34  35  36  37  38  39  40  41  42  43  44  45  46  47  48  49  50  51  52  53  54  55  56  57  58  59  60  

[Printable]
064
ASUS44 KFWD 301010
RWRTX
NORTH TEXAS HOURLY WEATHER ROUNDUP
NATIONAL WEATHER SERVICE FORT WORTH TX
500 AM CDT WED JUL 30 2014

NOTE: "FAIR" INDICATES FEW OR NO CLOUDS BELOW 12,000 FEET WITH NO
SIGNIFICANT WEATHER AND/OR OBSTRUCTIONS TO VISIBILITY.

TXZ118-119-301100-
DALLAS/FORT WORTH METROPLEX

CITY           SKY/WX    TMP DP  RH WIND       PRES   REMARKS
DFW AIRPORT    CLOUDY    77  65  66 SE5       30.03R
DALLAS LOVE    CLOUDY    78  65  63 SE7       30.03S
FTW MEACHAM    CLOUDY    76  65  68 SE8       30.03R
DAL-EXECUTIVE  CLOUDY    77  68  73 SE7       30.03S
FTW-ALLIANCE   CLOUDY    72  65  78 CALM      30.02S
FTW-NAS-JRB    CLOUDY    78  63  59 SE6       30.07S
FTW-SPINKS     CLOUDY    74  66  77 SE6       30.05S HAZE
ARLINGTON      CLOUDY    77  66  68 S5        30.04R
GRAND PRAIRIE  CLOUDY    76  64  67 E3        30.05R
ADDISON        CLOUDY    80  63  56 SE8       30.05S
MESQUITE       CLOUDY    74  67  78 SE6       30.04S
LANCASTER      CLOUDY    71  67  85 CALM      30.05R
$$

TXZ091>094-102>105-117-120-121-131>134-301100-
NORTH CENTRAL TEXAS

CITY           SKY/WX    TMP DP  RH WIND       PRES   REMARKS
SHRMAN/DENISON CLOUDY    74  64  70 E3        30.06S
GAINESVILLE    CLOUDY    73  63  72 CALM      30.07R
BOWIE          LGT RAIN  71  65  81 CALM      30.06R
BRIDGEPORT     CLOUDY    71  64  80 W7        30.08R
DECATUR        LGT RAIN  73  62  69 SE3       30.06R
DENTON         CLOUDY    72  67  84 CALM      30.03S
MCKINNEY       CLOUDY    75  67  76 SE5       30.04S
GREENVILLE     CLOUDY    73  64  73 SE5       30.05S
ROCKWALL       CLOUDY    76  66  72 SE7       30.03S
TERRELL        MOCLDY    77  68  73 SE8       30.05R
WAXAHACHIE     CLOUDY    74  66  77 SE6       30.05S
CLEBURNE       CLOUDY    73  68  83 CALM      30.06S
GRANBURY       CLOUDY    76  66  71 E8        30.04F
$$

TXZ083>090-098>101-113>116-127>130-139>142-154-155-301100-
WESTERN NORTH TEXAS

CITY           SKY/WX    TMP DP  RH WIND       PRES   REMARKS
WICHITA FALLS  HVY RAIN  66  63  90 S6        30.07S FOG
WF-KICKAPOO    HVY RAIN  68  64  86 E3        30.09R
VERNON         CLOUDY    70  66  86 SE10      30.04S
ABILENE        CLOUDY    75  69  81 S12       30.02F
ABILENE-DYESS  CLOUDY    74  69  82 S10       30.01F
BRECKENRIDGE   CLOUDY    79  64  60 S9        30.02S
GRAHAM         CLOUDY    75  62  62 SE6       30.01S
MINERAL WELLS  CLOUDY    72  65  78 SE8       30.02S
STEPHENVILLE   CLOUDY    75  65  71 S9        30.08S
COMANCHE       CLOUDY    76  68  78 SE6       30.05F
BROWNWOOD      CLOUDY    77  70  78 SE8       30.04F
COLEMAN        CLOUDY    76  67  71 S8        30.05F
BRADY          CLEAR     75  64  69 SE9       30.05S
$$

TXZ143>147-156>162-174-175-301100-
CENTRAL TEXAS

CITY           SKY/WX    TMP DP  RH WIND       PRES   REMARKS
WACO           PTCLDY    76  71  85 S8        30.04S
WACO-MCGREGOR  PTCLDY    73  66  78 S7        30.06S
HILLSBORO      CLOUDY    75  68  78 SE7       30.04S
CORSICANA      PTCLDY    75  70  84 SE6       30.05S
MEXIA          CLEAR     72  70  94 SE5       30.04S
HEARNE         CLEAR    N/A N/A N/A SE3       30.05R
CAMERON        CLEAR     76  72  87 S6        30.04R
TEMPLE         CLEAR     73  66  78 SE7       30.05S
KILLEEN        PTCLDY    75  72  88 SE13      30.04F
KILLEEN-SKYLRK CLEAR     75  66  73 SE9       30.05S
FORT HOOD      CLEAR     77  71  82 SE8       30.04S
GATESVILLE     PTCLDY    73  70  88 CALM      30.07S
HAMILTON       CLOUDY    75  70  83 SE8       30.06S
LAMPASAS       PTCLDY    74  72  94 CALM      30.05R
$$

TXZ095>097-106>112-122>126-135>138-148>153-164>167-301100-
EAST TEXAS

CITY           SKY/WX    TMP DP  RH WIND       PRES   REMARKS
PARIS          CLOUDY    72  63  73 SE7       30.07S
SULPHUR SPRNGS CLOUDY    75  65  69 SE7       30.08S
CLARKSVILLE    MOCLDY    73  65  76 SE3       30.07S
MOUNT PLEASANT MOCLDY    72  66  82 SE3       30.09R
GILMER         PTCLDY    75  66  73 SE7       30.08S
MINEOLA        MOCLDY    73  66  78 SE6       30.07R
TYLER          PTCLDY    75  66  73 SE10      30.05F
LONGVIEW       PTCLDY    73  65  75 SE8       30.06S
MARSHALL       PTCLDY    73  67  81 CALM      30.10R
ATHENS         MOCLDY    72  66  83 S5        30.04S
JACKSONVILLE   PTCLDY    74  66  76 SE5       30.08F
HENDERSON      PTCLDY    73  66  78 SE6       30.08S
NACOGDOCHES    CLEAR     72  66  83 E6        30.07S
LUFKIN         CLEAR     74  69  85 E5        30.05S
$$

SUPPLEMENTAL OBSERVATIONS (CENTRAL)

CITY           SKY/WX    TMP DP  RH WIND       PRES   REMARKS
CADDO GRASSLND   N/A     73  66  78 S3          N/A
PAT MAYSE LAKE   N/A     75  66  73 E7          N/A
PALESTINE        N/A     72  68  88 SE3         N/A
MCGREGOR         N/A     75  70  83 S7          N/A
TEMPLE           N/A     73  68  83 SE5         N/A
$$

SUPPLEMENTAL OBSERVATIONS (WEST)

CITY           SKY/WX    TMP DP  RH WIND       PRES   REMARKS
MILLERS CREEK    N/A    N/A N/A N/A E3          N/A
POSSUM KINGDOM   N/A     75  61  60 SE7         N/A
LBJ GRASSLAND    N/A    N/A N/A N/A SE1         N/A
GRANBURY         N/A     75  64  69 SE9         N/A
HAMBY            N/A     75  68  78 S14         N/A
IVIE RESERVOIR   N/A     77  64  65 SE9         N/A
COLORADO BEND    N/A     75  68  78 S6          N/A
$$

SUPPLEMENTAL OBSERVATIONS (EAST)

CITY           SKY/WX    TMP DP  RH WIND       PRES   REMARKS
CLARKSVILLE      N/A     72  64  78 SE5         N/A
TEXARKANA        N/A     66  63  88 CALM        N/A
LINDEN           N/A     70  63  78 CALM        N/A
GILMER           N/A     73  64  73 SE5         N/A
HENDERSON        N/A     73  64  73 CALM        N/A
LUFKIN           N/A     73  72  94 MISG        N/A
N SABINE NF      N/A     70  66  88 MISG        N/A
S SABINE NF      N/A     73  63  68 E2          N/A
$$

SUPPLEMENTAL OBSERVATIONS ARE A COLLECTION OF AUTOMATED INSTRUMENTS
THAT ARE MAINTAINED BY A VARIETY OF FEDERAL AND STATE AGENCIES.
CERTAIN ELEMENTS...SUCH AS HUMIDITY VALUES AND SUSTAINED WIND
SPEEDS...MAY BE APPROXIMATED.